Погода в Дорожном

Россия / Республика Саха (Якутия)     61°26′46″N   114°21′33″E
темп.,
°C
ветер,
м/с
пор.,
м/с
влажн.,
%
обл.,
%
осадки,
мм/ч
давл.,
гПа
погр.,
м
19 января, вт
вт1900:00−38в1294100 0.0 102019
03:00−38в2396100 0.0 101849
06:00−37в3696100 0.0 1016230
09:00−36всв3894100 0.0 1014289
12:00−36всв41093100 0.0 1011317
15:00−35всв51096100 0.1 1010329
18:00−37всв4997100 0.3 1010336
21:00−38св3797100 0.5 1012303
20 января, ср
ср2000:00−39ссв3596100 0.1 1013272
03:00−39ссв2496100 0.3 1016229
06:00−40с2397100 0.1 1018171
09:00−42с2297100 0.1 102047
12:00−42ссз129699 0.0 1022115
15:00−40сз139599 0.0 1024245
18:00−41сз1397100 0.0 1026162
21:00−43зсз2297100 0.1 102920
21 января, чт
чт2100:00−43зсз229794 0.0 103048
03:00−42з249796 0.0 1032141
06:00−40з2596100 0.1 1033293
09:00−39зюз2696100 0.1 1034324
12:00−38зюз3694100 0.1 1034371
15:00−37зюз2593100 0.1 1034439
18:00−38юз1297100 0.0 103534
21:00−38юз1298100 0.1 103418
22 января, пт
пт2200:00−39юз119993 0.0 103418
03:00−39ю119994 0.1 103418
06:00−40юв0010094 0.0 103318
09:00−41всв1110098 0.0 103318
12:00−39св129898 0.0 103225
15:00−37всв129775 0.0 103097
18:00−41всв229822 0.0 103018
21:00−42всв239926 0.0 103032
23 января, сб
сб2300:00−43всв339952 0.0 102866
03:00−43св369861 0.0 1028108
06:00−43всв379883 0.0 1027150
09:00−43всв379784 0.0 1027172
12:00−41всв379584 0.0 1027208
15:00−39всв369588 0.0 1026230
18:00−39всв3894100 0.0 1028247
21:00−39всв3695100 0.0 1028235